Weather History for KPRB - May, 2014

Change the Weather History Date:

Saturday, May 24, 2014

  Actual Average Record
Temperature  
Mean Temperature 68 °F 65 °F  
Max Temperature 84 °F 83 °F 99 °F (1982)
Min Temperature 51 °F 47 °F 35 °F (1953)
Degree Days  
Heating Degree Days 0 3  
Month to date heating degree days 31 94  
Since 1 July heating degree days 2106 2806  
Cooling Degree Days 3 2  
Month to date cooling degree days 88 38  
Year to date cooling degree days 106 47  
Growing Degree Days 16 (Base 50)    
Moisture  
Dew Point 49 °F    
Average Humidity 60    
Maximum Humidity 89    
Minimum Humidity 31    
Precipitation  
Precipitation 0.00 in 0.00 in 0.00 in (2015)
Month to date precipitation T 0.23  
Year to date precipitation 4.46 8.74  
Since 1 July precipitation 4.92  
Sea Level Pressure  
Sea Level Pressure 29.95 in    
Wind  
Wind Speed 10 mph (WSW)    
Max Wind Speed 21 mph    
Max Gust Speed 25 mph    
Visibility 10 miles    
Events      
T = Trace of Precipitation, MM = Missing Value Source: NWS Daily Summary

Daily Weather History Graph

Daily Weather History Graph

Search for Another Location

Airport or City:

Trip Planner

Search our weather history database for the weather conditions in past years. The results will help you decide how hot, cold, wet, or windy it might be!

Date:

Astronomy

May. 24, 2014 Rise Set
Actual Time 5:51 AM PDT 8:07 PM PDT
Civil Twilight 5:22 AM PDT 8:36 PM PDT
Nautical Twilight 4:46 AM PDT 9:12 PM PDT
Astronomical Twilight 4:08 AM PDT 9:51 PM PDT
Moon 3:14 AM PDT (5/24) 4:17 PM PDT (5/24)
Length of Visible Light 15h 14m
Length of Day
14h 16m
Waning Crescent, 17% of the Moon is Illuminated
May 24
Waning Crescent
May 28
New
Jun 5
First Quarter
Jun 12
Full
Jun 19
Last Quarter

Hourly Weather History & Observations

Time (PDT) Temp. Dew Point Humidity Pressure Visibility Wind Dir Wind Speed Gust Speed Precip Events Conditions
12:53 AM 55.0 °F 48.0 °F 77% 29.99 in 10.0 mi SSW 3.5 mph - N/A   Clear
1:53 AM 54.0 °F 48.0 °F 80% 29.98 in 10.0 mi West 4.6 mph - N/A   Clear
2:53 AM 55.0 °F 50.0 °F 83% 29.97 in 10.0 mi West 5.8 mph - N/A   Clear
3:53 AM 54.0 °F 48.9 °F 83% 29.97 in 10.0 mi SW 3.5 mph - N/A   Clear
4:53 AM 53.1 °F 48.0 °F 83% 29.98 in 10.0 mi SW 3.5 mph - N/A   Partly Cloudy
5:53 AM 52.0 °F 48.0 °F 86% 29.98 in 10.0 mi Calm Calm - N/A   Clear
6:16 AM 51.1 °F 46.9 °F 86% 30.00 in 10.0 mi Calm Calm - N/A   Scattered Clouds
6:26 AM 52.0 °F 48.0 °F 86% 30.00 in 10.0 mi South 3.5 mph - N/A   Mostly Cloudy
6:34 AM 52.0 °F 48.0 °F 86% 30.00 in 10.0 mi SSW 3.5 mph - N/A   Scattered Clouds
6:53 AM 53.1 °F 48.9 °F 86% 29.99 in 10.0 mi South 3.5 mph - N/A   Clear
7:53 AM 57.0 °F 50.0 °F 77% 29.99 in 10.0 mi Calm Calm - N/A   Clear
8:53 AM 61.0 °F 50.0 °F 67% 30.00 in 10.0 mi NNW 8.1 mph - N/A   Clear
9:53 AM 66.0 °F 50.0 °F 56% 29.98 in 10.0 mi North - - N/A   Clear
10:53 AM 71.1 °F 48.0 °F 44% 29.97 in 10.0 mi NW 8.1 mph - N/A   Clear
11:53 AM 77.0 °F 48.9 °F 37% 29.95 in 10.0 mi Variable 5.8 mph - N/A   Clear
12:53 PM 82.0 °F 48.0 °F 30% 29.93 in 10.0 mi WNW 8.1 mph 16.1 mph N/A   Clear
1:53 PM 82.0 °F 51.1 °F 34% 29.91 in 10.0 mi SW 12.7 mph - N/A   Clear
2:53 PM 82.0 °F 51.1 °F 34% 29.89 in 10.0 mi SSW 13.8 mph - N/A   Clear
4:53 PM 82.9 °F 51.1 °F 33% 29.86 in 10.0 mi SSW 15.0 mph - N/A   Clear
5:53 PM 77.0 °F 51.1 °F 40% 29.86 in 10.0 mi SSW 12.7 mph - N/A   Clear
6:44 PM 80.1 °F 48.0 °F 32% 29.89 in 10.0 mi West 18.4 mph - N/A   Clear
6:53 PM 80.1 °F 48.0 °F 32% 29.88 in 10.0 mi WNW 13.8 mph - N/A   Clear
8:53 PM 69.1 °F 48.0 °F 47% 29.92 in 10.0 mi West 11.5 mph - N/A   Clear
9:53 PM 64.9 °F 48.0 °F 54% 29.95 in 10.0 mi WNW 16.1 mph - N/A   Clear
11:53 PM 59.0 °F 48.0 °F 67% 29.96 in 10.0 mi WNW 11.5 mph - N/A   Clear